sat.trackr.live / text

‹ back to catalog

GAOFEN-11 03

NORAD 49492 · 2021-107A

PAYLOAD ACTIVE UNKNOWN

§ Identity

Operator
Country
PRC
Launch date
2021-11-20
Launch site
TAISC
Launch vehicle
Mass (kg)
RCS (m²)

External: N2YO · Heavens-Above · Gunter

§ Orbital elements

Epoch: 2026-05-25T04:46:17.833728Z

Period
94.51 min
Inclination
97.2101°
Eccentricity
0.0009508
Mean motion
15.23636795 rev/d
Perigee alt
488.3 km
Apogee alt
501.4 km
Semi-major
6,873.0 km
B*
2.2482e-4
RAAN
190.2282°
Arg perigee
133.8037°
Mean anomaly
226.3988°
Rev number
25,113

§ Raw data

GAOFEN-11 031 49492U 21107A   26145.19881752  .00005325  00000+0  22482-3 0  99932 49492  97.2101 190.2282 0009508 133.8037 226.3988 15.23636795251138

JSON: /api/v1/satellites/49492 · /tle

For live sub-satellite position, see the globe view (requires WebGL).

§ Visibility from observer

Set your observer location to see the next 7 days of passes ≥ 10°. The values pass through the URL so the page stays shareable.

No JS? Fill the form by hand. The geolocation button needs JavaScript.